Flag for Turkey Weather past 2 weeks in Konya, Turkey

Now
70 °F

Clear.


Feels Like: 70 °F
Forecast: 66 / 89 °F
Wind: 10 mph from North

Location: Konya Airport

Current Time: Aug 2, 2015 at 7:41:09 AM

Latest Report: Aug 2, 2015 at 6:50 AM


Visibility: 10 mi

Pressure: 30.09 "Hg (26.66 "Hg at 1041m altitude)

Humidity: 57%

Dew point: 54 °F

Location of KonyaLocation

Historic Weather in Konya — Graph

°F

Konya temperature yesterday

Maximum temperature yesterday: 90 °F (at 2:50 PM)
Minimum temperature yesterday: 64 °F (at 4:50 AM)
Average temperature yesterday: 78 °F

Past Weeks' High & Low Weather Summary

 TemperatureHumidityPressure
High93 °F (Jul 24, 1:50 PM)68% (Jul 18, 6:50 AM)30.09 "Hg (Jul 18, 6:50 AM)
Low57 °F (Jul 18, 5:50 AM)11% (Jul 22, 2:50 PM)29.77 "Hg (Jul 31, 1:50 PM)
Average78 °F30%29.92 "Hg
* Reported Jul 18 5:50 AM — Aug 2 5:50 AM, Konya, Weather by CustomWeather, © 2015

Note: Actual official high and low records may vary slightly from our data, if they occured in-between our weather recording intervals... More about our weather records

Advertising

Konya weather history for previous 24 hours

 ConditionsComfort  
Time TempWeatherWind HumidityBarometerVisibility
5:50 AM
Sun, Aug 2
68 °FClear.12 mph60%30.09 "Hg10 mi
4:50 AM70 °FClear.12 mph57%30.09 "Hg10 mi
3:50 AM70 °FClear.12 mph57%30.09 "Hg10 mi
2:50 AM72 °FClear.12 mph53%30.07 "Hg10 mi
1:50 AM73 °FClear.12 mph50%30.07 "Hg10 mi
12:50 AM75 °FClear.15 mph44%30.07 "Hg10 mi
11:50 PM
Sat, Aug 1
73 °FClear.7 mph47%30.04 "Hg10 mi
10:50 PM75 °FClear.8 mph41%30.04 "Hg10 mi
9:50 PM79 °FPassing clouds.9 mph37%30.04 "HgN/A
8:50 PM79 °FScattered clouds.12 mph37%30.01 "HgN/A
7:50 PM81 °FScattered clouds.6 mph34%29.98 "HgN/A
6:50 PM86 °FScattered clouds.14 mph27%29.98 "HgN/A
5:50 PM90 °FScattered clouds.13 mph24%29.95 "HgN/A
4:50 PM90 °FScattered clouds.12 mph24%29.95 "HgN/A
3:50 PM90 °FPassing clouds.15 mph24%29.95 "HgN/A
2:50 PM90 °FPassing clouds.15 mph21%29.98 "HgN/A
1:50 PM88 °FPassing clouds.14 mph27%29.98 "HgN/A
12:50 PM88 °FPassing clouds.16 mph22%29.98 "HgN/A
11:50 AM86 °FPassing clouds.17 mph22%29.95 "HgN/A
10:50 AM84 °FPassing clouds.16 mph23%29.95 "HgN/A
9:50 AM82 °FPassing clouds.6 mph25%29.95 "HgN/A
8:50 AM77 °FPassing clouds.8 mph36%29.92 "HgN/A
7:50 AM72 °FPassing clouds.5 mph47%29.92 "HgN/A
Weather by CustomWeather, © 2015

See weather overviewHow to use our weather pages